Showing default

TIANMU-1 17, 58702

Orbit data source: Space-Track

TIANMU-1 17, 58702 is a payload satellite owned by Hangtian Tianmu (CN) in SSO that was launched on Fri, 05 Jan 2024 UTC via a KUAIZHOU-1A launch vehicle from the Jiuquan Satellite Launch Center, China (JSC). Payload-class satellites include a variety of spacecraft equipped with specific instruments for various scientific and technological missions. These include communications satellites like Starlink; space stations such as the ISS; scientific satellites like the Hubble; Earth observation satellites from companies like Planet Labs, Umbra, and HawkEye 360; GPS; miniature CubeSats for education and research; and military/defense satellites.

Loading next visibility...
Identifier
58702, 2024-004C
Orbit
SSO
Last TLE update
8 hours ago
Origin
Manufacturer
Hangtian Tianmu
Mission
Operational Commercial Weather
Bus & Motor
TIANMU, Unknown motor
Mass
50 kg wet, ~50 kg dry
Launch date (UTC)
2024-01-05 (1 year ago)
Launch vehicle
KUAIZHOU-1A
Launch site
Jiuquan Satellite Launch Center, China (JSC)
Object type
Payload
Rocket body
Debris
Shape & HBR
Box, 1.5 m
Radar Cross Section
2.000 m², Large (>1 m²)

Expand to show TLE details & history

TLE from 8 hours ago
0 TIANMU-1 17
1 58702U 24004C   25127.49603599  .00006567  00000-0  29202-3 0  9996
2 58702  97.4628 310.1667 0005447   6.3929 353.7376 15.21830162 73972
Epoch: 2025-05-07T11:54Z
Definitive object data (Epoch: 2025-05-07T11:54:17.509Z)
Latitude
0.00003°
Longitude
-93.98631°
Altitude
499.686 km
Speed
7.617 km/s
True Right ascension
20h 40m 40s
True Declination
0° 00' 00"
Sunlit
Object was in daylight at TLE epoch
Visualization TLE readout
Latitude
22.76327°
Longitude
-96.78955°
Altitude
499.656 km
Speed
7.619 km/s
Apparent Right ascension
18h 33m 02s
Apparent Declination
-8° 39' 60"
Sunlit
Object is in daylight
Visualization observer readout
Local Sidereal Time
03:56:51
Azimuth
301.195° NW
Elevation
-43.279°
Doppler factor
1
Orbital elements
Apogee altitude
501.031 km
Perigee altitude
493.541 km
Semi-major axis
6,875.423 km
Eccentricity
0.0005447
Inclination
97.4628°
RAAN
310.1667°
Arg. of periapsis
6.3929°
True anomaly
353.73079°
Mean anomaly
353.7376°
Eccentric anomaly
353.73419°
Mean motion
3.8071 °/min
BSTAR
0.00029202
Orbital period
94.56 mins
Loading maneuver chart data...
Loading SW <> Apogee altitude chart data...
Loading historical data...
Loading historical data...
Loading historical data...
Loading historical data...
Loading historical data...
Loading historical data...
Loading historical data...
Other satellites on launch #4 in the year 2024 (2024-01-05 UTC)

TIANMU-1 17 Visibility forecast

Observer location: undefined°, undefined°

Span
Click to sort rows by Start time (UTC) header in descending order
Start Az.
Max El. time (UTC)
Max El. Az.
Max El.
End time (UTC)
End Az.
6 mins2025-05-08 01:05:42.298Z8.201° NNE2025-05-08 01:08:42.298Z228.755° WSW43.365°2025-05-08 01:11:42.298Z197.494° SSW
5 mins2025-05-08 11:43:42.298Z124.749° SE2025-05-08 11:45:42.298Z62.957° ENE30.409°2025-05-08 11:48:42.298Z6.108° NNE
|